Regional Weather Roundup
Issued by NWS

Home | Current Version | Previous Version | Text Only | Print | Product List | Glossary Off
Versions: 1 2 3 4 5 6 7 8 9 10 11 12 13 14 15 16 17 18 19 20 21 22 23 24 25 26 27 28 29 30 31 32 33 34 35 36 37 38 39 40 41 42 43 44 45 46 47 48 49 50

000
ASUS43 KDTX 270110
RWRMI
MICHIGAN HOURLY REGIONAL WEATHER ROUNDUP
NATIONAL WEATHER SERVICE DETROIT/PONTIAC MI
900 PM EDT SUN MAR 26 2017

NOTE: "FAIR" INDICATES FEW OR NO CLOUDS BELOW 12,000 FEET WITH NO
SIGNIFICANT WEATHER AND/OR OBSTRUCTION TO VISIBILITY.

MIZ047>049-052>055-059>063-066>070-074>076-081>083-270200-
SOUTHEAST LOWER MICHIGAN

CITY           SKY/WX    TMP DP  RH WIND       PRES   REMARKS
ADRIAN         LGT RAIN  49  49 100 SE3       29.90S VSB 1
ALMA           FOG       46  46 100 N10       29.87R VSB 3/4
ANN ARBOR      LGT RAIN  50  50 100 SE3       29.89R VSB 1/2
BAD AXE        LGT RAIN  47  47  98 S5        29.89S
CARO           CLOUDY    49  49  99 SE3       29.87S FOG
DETROIT CITY   FOG       48  48 100 CALM      29.90S VSB 1/4
DETROIT        LGT RAIN  51  50  96 CALM      29.90S VSB 3/4
FLINT          CLOUDY    51  49  92 S6        29.88S FOG
GROSSE ILE     CLOUDY    44  43  98 S3        29.89R FOG
HILLSDALE      LGT RAIN  52  50  93 S7        29.88R
HOWELL         CLOUDY    50  48  93 SE6       29.87S FOG

CITY           SKY/WX    TMP DP  RH WIND       PRES   REMARKS
JACKSON        CLOUDY    52  51  97 S7        29.88R FOG
LAMBERTVILLE   RAIN      52  50  92 CALM      29.90F
LANSING        CLOUDY    52  49  89 SE6       29.87R
LAPEER         CLOUDY    48  47  97 CALM      29.88S FOG
MASON          CLOUDY    51  50  97 S6        29.87R FOG
MONROE         RAIN      49  49 100 SW9       29.89R
MT. CLEMENS    DRZL/FOG  46  46 100 SE5       29.88S VSB 1/4
PONTIAC        FOG       47  46  97 SE5       29.88S VSB 1/2
PORT HOPE        N/A     45  44  97 S8        29.87S
PORT HURON     CLOUDY    48  46  93 SE5       29.90S FOG
TRI CITIES     FOG       42  42 100 NE6       29.87F VSB 1/4
MIDLAND        LGT SNOW  43  42  97 CALM      29.87S VSB 3/4
TROY           HVY RAIN  47  46  93 CALM      29.91S
SAGINAW HB     CLOUDY    45  43  93 CALM      29.87S FOG
$$
MIZ043>046-050>051-056>058-064>065-071>073-077>080-270200-
SOUTHWEST LOWER MICHIGAN

CITY           SKY/WX    TMP DP  RH WIND       PRES   REMARKS
BATTLE CREEK   CLOUDY    53  52  96 S5        29.87R
BENTON HARBOR  CLOUDY    56  53  90 SW5       29.86R
BIG RAPIDS     FOG       44  42  95 E3        29.85R VSB 3/4
COLDWATER      CLOUDY    55  55 100 SE6       29.87R FOG
FREMONT        CLOUDY    47  47 100 E5        29.84R FOG
HOLLAND        CLOUDY    54  53  97 S3        29.85R
GRAND RAPIDS   LGT RAIN  52  52 100 S5        29.85R FOG
IONIA          CLOUDY    50  49  98 CALM      29.85R FOG
KALAMAZOO      CLOUDY    54  50  86 S5        29.87R
LUDINGTON      FOG       47  47 100 SE3       29.83S VSB 1
MARSHALL       CLOUDY    54  53  98 SE3       29.86S
MOUNT PLEASANT FOG       43  42  97 CALM      29.86S VSB 3/4
MUSKEGON       FOG       51  49  92 E3        29.84S VSB 1
SOUTH HAVEN    CLOUDY    55  55  99 S3        29.85R
$$
MIZ016>042-270200-
NORTHERN LOWER MICHIGAN

CITY           SKY/WX    TMP DP  RH WIND       PRES   REMARKS
ALPENA         LGT RAIN  37  37 100 SE3       29.89F FOG
BEAVER ISLAND  DRIZZLE   34  34 100 E6        29.87F WCI  29
BELLAIRE       CLOUDY    43  41  94 CALM      29.86S FOG
CADILLAC       LGT RAIN  42  41  97 SE3       29.84S VSB 1/2
CHARLEVOIX     CLOUDY    40  40 100 E6        29.88F FOG
FRANKFORT      CLOUDY    46  44  95 CALM      29.84S FOG
GAYLORD        CLOUDY    42  38  85 SE6       29.84F FOG
GRAYLING       CLOUDY    41  41 100 E3        29.86S FOG
HARBOR SPRINGS CLOUDY    37  37 100 NE7       29.87S FOG     WCI  31
HOUGHTON LAKE  FOG       40  40 100 SE3       29.86S VSB 1/2
MANISTEE       LGT RAIN  45  45 100 E5        29.83F FOG
OSCODA         CLOUDY    38  37  97 CALM      29.88S FOG
PELLSTON       LGT RAIN  36  34  92 E3        29.88F FOG
ROGERS CITY    MIX PCPN  36  35  95 E3        29.90F
TRAVERSE CITY  CLOUDY    44  42  93 CALM      29.84S FOG
$$
MIZ007>008-015-270200-
EASTERN UPPER MICHIGAN

CITY           SKY/WX    TMP DP  RH WIND       PRES   REMARKS
KINROSS        MIX PCPN N/A N/A N/A E12       29.90F
MACKINAC ISLAN MIX PCPN  33  33 100 E13G21    29.88F WCI  24
NEWBERRY       LGT RAIN  32  32  99 NE3       29.88S
S. S. MARIE    LGT RAIN  34  32  92 E7        29.91F WCI  28
MUNISING         N/A     34  34 100 CALM      29.89S
$$
MIZ004>006-011>014-085-270200-
CENTRAL UPPER MICHIGAN

CITY           SKY/WX    TMP DP  RH WIND       PRES   REMARKS
MANISTIQUE     LGT RAIN  34  32  93 NE5       29.88R WCI  30
ESCANABA       CLOUDY    36  35  96 CALM      29.89R FOG
MENOMINEE        N/A    N/A N/A N/A MISG        N/A
SAWYER-GWINN   CLOUDY    32  32 100 N5        29.88S FOG     WCI  27
$$
MIZ001>003-009>011-084-270200-
WESTERN UPPER MICHIGAN

CITY           SKY/WX    TMP DP  RH WIND       PRES   REMARKS
IRON MOUNTAIN  LGT RAIN  36  33  89 NW5       29.87R FOG     WCI  32
HOUGHTON       LGT RAIN  33  31  92 CALM      29.90S VSB 1
COPPER HARBOR    N/A     34  34 100 CALM      29.91F
IRONWOOD       CLOUDY    32  31  96 NE3       29.93R FOG
$$

ABBREVIATIONS USED IN REMARKS
   TC - TEMPERATURE IN CELSIUS
  WCI - WIND CHILL INDEX
   HX - HEAT INDEX
  VSB - VISIBILITY





USA.gov is the U.S. government's official web portal to all federal, state and local government web resources and services.